Zurück zum Katalog

BREEZE-M DEB

AktivHEO
NORAD 38604·DEBRIS·🇷🇺 Russia

Gestartet Mar 14, 2008 von Baikonur Cosmodrome

Loading…

Nächste Überflüge (nächste 24 Stunden)

TLE

AktuellSource: Space-Track

Epoche: Sep 14, 2026, 06:35 UTC

1 38604U 08011BB  26257.27485448  .00000032  00000-0  11220-2 0  9998
2 38604  49.2777 239.4833 6470206 325.6477   5.7688  3.09290658154309

Verfolge BREEZE-M DEB in Echtzeit mit AllMySat

Download on the App Store